Погода в Хедеморе

Швеция     60°16′50″N   15°59′15″E
темп.,
°C
ветер,
м/с
пор.,
м/с
влажн.,
%
обл.,
%
осадки,
мм/ч
давл.,
гПа
погр.,
м
9 мая, вс
вс923:00+4ююз2588100 0.9 1010115
02:00+2юз2691100 0.9 1011133
05:00+2ююз2690100 0.0 1011140
08:00+5ю3674100 0.0 1010345
11:00+7ю3761100 0.0 1009963
14:00+7ююв4874100 0.2 10091039
17:00+5юв4897100 0.8 1007885
20:00+5юв2798100 0.9 1006418
10 мая, пн
пн1023:00+5вюв2499100 1.7 1006238
02:00+5юв1699100 1.7 1007243
05:00+7ююв1599100 2.0 1006154
08:00+10ююв1697100 2.5 1006279
11:00+13ююв2591100 0.0 1006570
14:00+15ююв2590100 0.1 1006620
17:00+15ююв1295100 0.1 1007122
20:00+15юв1298100 1.9 100734
11 мая, вт
вт1123:00+12ююв2797100 1.8 1008223
02:00+10ююв2698100 1.9 1009153
05:00+12ююз399898 0.0 1009337
08:00+13зюз3585100 0.0 1011370
11:00+16юз2362100 0.0 1013690
14:00+19ю1344100 0.0 10131256
17:00+19юв2357100 0.0 10121138
20:00+16юв3780100 0.1 1012473
12 мая, ср
ср1223:00+13юв288699 0.0 1013418
02:00+10вюв279846 0.0 1013206
05:00+9в139995 0.0 1013111
08:00+13вюв478195 0.0 1013439
11:00+18юв585755 0.0 1013924
14:00+20юв69415 0.0 10131239
17:00+20ююв511434 0.0 10121392
20:00+17юв512660 0.0 10131065
13 мая, чт
чт1323:00+12вюв311890 0.0 1014347
02:00+10в22960 0.0 101431
05:00+9всв11961 0.0 101417
08:00+15всв247313 0.0 1013334
11:00+19в455684 0.0 10121101
14:00+19в356079 0.4 10111358
17:00+18в3561100 0.5 10091039
20:00+16всв367013 0.6 1008280